STARLINK-3053 (49149 NORAD) Tracking and Keplerian Element Data

This shows tracking and keplerian element data for the satellite.

Feedback or suggestion? Click here.




ElementValue
Catalog49149
NameSTARLINK-3053
Epoch Orbit367
Epoch Day300.58334491
Epoch Year2021
RAAN4.7068
Inclination69.9999
Eccentricity0.0003886
Argument of Perigee296.1267
Mean Anonmoly76.7258
Mean Motion15.69786149
Decay Rate-0.00048119
L11 49149U 21082V 21300.58334491 -.00048119 00000-0 -40295-3 0 9991
L22 49149 69.9999 4.7068 0003886 296.1267 76.7258 15.69786149 3670

Live tracking and technical data element details for STARLINK-3053 (NORAD 49149). STARLINK-3053 can be tracked NOW for your location showing map with azimuth and elevation plus other details from your city location.

Track the satellite on the map from your city or location and see movement details for azimuth, elevation, latitude, longitude, range, height, and movement on the map or in text.







IsCatalogInMostPopularTable: catalog: 49149, numindb: 5
Update: records affected: 1



GetName: 49149 STARLINK-3053

Hit Count: updated at: Thu, 28 Oct 2021 11:40:28 GMT